"Pseudo-MPEC" for P21DbbG

Created 2023 Jan 28 9:22:24 UT using Find_Orb

Click here for an explanation of pseudo-MPECs

 
 Astrometry: 
     P21DbbG* C2023 01 23Q0NqS_OAstrometryTf$!R/u*it8v/V8redacted;b/A0S8B*p!VF52
     P21DbbG  C2023 01 23/*du.f(u#eclickdw#:`Y,#CM?SZWud3E?i.I.*2t28o5W3f['LnF52
     P21DbbG  C2023 01 23hOk;HEvYt:mtZ6(]D2IxhereggsforTS.6Z#$cexplanationn?2F52

Station data:
(F52) Pan-STARRS 2, Haleakala  (N20.707382 W156.255910)  US/Hawaii.
   Observers J. Bulger, T. Dukes, T. Lowe, A. Schultz, M. Willman. Measurers
   K. Chambers, S. Chastel, T. de Boer, L. Denneau, J. Fairlamb, H.
   Flewelling, M. Huber, C.-C. Lin, E. Magnier, Y. Ramanjooloo, R. Wainscoat,
   R. Weryk. 1.8-m Ritchey-Chrétien + CCD.

Orbital elements:  P21DbbG
   Perihelion 2022 Sep 3.94770 +/- 59.4 TT = 22:44:41 (JD 2459826.44770)
Epoch 2023 Jan 23.0 TT = JDT 2459967.5   Earth MOID: 0.0148   Ve: 0.0950
M 160.43110126 +/- 80               (J2000 ecliptic)             AutoNEOCP
n   1.13738735 +/- 0.703            Peri.  175.03620 +/- 90
a   0.90893003 +/- 0.374            Node   142.53795 +/- 80
e   0.1052383 +/- 0.259             Incl.    3.06154 +/- 41
P   0.87/316.51d           H 26.64  G  0.15   U 12.5  SR
q 0.81327575 +/- 0.399    Q 1.00458430 +/- 12.2
From 3 observations 2023 Jan. 23 (31.2 min); mean residual 0".08
Residuals in arcseconds: 
230123 F52  .07+  .04-    230123 F52  .15-  .08+    230123 F52  .07+  .04-    

Ephemerides (geocentric):
Date (UTC) HH   RA             Dec           delta  r     elong  mag " sig PA
---- --------  ------------   ------------  ------ ------ -----  --- --------
2023 01 28 09  05 13 34.760   -05 10 30.75  .03112 1.0024 123.7 21.2  27d  24
2023 01 28 10  05 13 26.924   -05 04 23.70  .03115 1.0024 123.7 21.2  27d  24
2023 01 28 11  05 13 19.118   -04 58 17.36  .03118 1.0025 123.7 21.2  27d  24
2023 01 28 12  05 13 11.340   -04 52 11.73  .03122 1.0025 123.7 21.2  28d  23
2023 01 28 13  05 13 03.592   -04 46 06.80  .03125 1.0025 123.7 21.2  28d  23
2023 01 28 14  05 12 55.871   -04 40 02.58  .03128 1.0025 123.6 21.2  28d  23
2023 01 28 15  05 12 48.180   -04 33 59.06  .03131 1.0025 123.6 21.2  28d  23
2023 01 28 16  05 12 40.516   -04 27 56.26  .03135 1.0025 123.6 21.2  28d  22
2023 01 28 17  05 12 32.881   -04 21 54.16  .03138 1.0025 123.6 21.2  28d  22
2023 01 28 18  05 12 25.275   -04 15 52.77  .03141 1.0026 123.6 21.2  28d  22
2023 01 28 19  05 12 17.696   -04 09 52.08  .03145 1.0026 123.5 21.2  28d  22
2023 01 28 20  05 12 10.145   -04 03 52.11  .03148 1.0026 123.5 21.2  28d  22
2023 01 28 21  05 12 02.623   -03 57 52.85  .03152 1.0026 123.5 21.2  29d  21
2023 01 28 22  05 11 55.128   -03 51 54.30  .03155 1.0026 123.5 21.2  29d  21
2023 01 28 23  05 11 47.661   -03 45 56.46  .03158 1.0026 123.5 21.2  29d  21
2023 01 29 00  05 11 40.222   -03 39 59.33  .03162 1.0026 123.4 21.2  29d  21
2023 01 29 01  05 11 32.810   -03 34 02.91  .03165 1.0027 123.4 21.2  29d  21
2023 01 29 02  05 11 25.426   -03 28 07.20  .03169 1.0027 123.4 21.2  29d  21
2023 01 29 03  05 11 18.069   -03 22 12.21  .03172 1.0027 123.4 21.2  29d  21
2023 01 29 04  05 11 10.739   -03 16 17.92  .03176 1.0027 123.3 21.2  29d  21
2023 01 29 05  05 11 03.437   -03 10 24.35  .03179 1.0027 123.3 21.2  29d  20
2023 01 29 06  05 10 56.161   -03 04 31.49  .03183 1.0027 123.3 21.2  29d  20
2023 01 29 07  05 10 48.913   -02 58 39.35  .03186 1.0027 123.3 21.2  29d  20
2023 01 29 08  05 10 41.692   -02 52 47.91  .03190 1.0028 123.2 21.2  29d  20
2023 01 29 09  05 10 34.497   -02 46 57.19  .03193 1.0028 123.2 21.2  29d  20
2023 01 29 10  05 10 27.329   -02 41 07.19  .03197 1.0028 123.2 21.2  29d  20
2023 01 29 11  05 10 20.188   -02 35 17.89  .03200 1.0028 123.2 21.2  29d  20
2023 01 29 12  05 10 13.074   -02 29 29.31  .03204 1.0028 123.1 21.2  29d  20
2023 01 29 13  05 10 05.986   -02 23 41.44  .03207 1.0028 123.1 21.2  29d  20
2023 01 29 14  05 09 58.924   -02 17 54.28  .03211 1.0028 123.1 21.2  29d  20
2023 01 29 15  05 09 51.889   -02 12 07.84  .03214 1.0028 123.1 21.2  29d  20
2023 01 29 16  05 09 44.880   -02 06 22.11  .03218 1.0029 123.0 21.2  29d  20
2023 01 29 17  05 09 37.897   -02 00 37.09  .03221 1.0029 123.0 21.3  29d  19
2023 01 29 18  05 09 30.940   -01 54 52.79  .03225 1.0029 123.0 21.3  29d  19
2023 01 29 19  05 09 24.009   -01 49 09.20  .03229 1.0029 123.0 21.3  30d  19
2023 01 29 20  05 09 17.104   -01 43 26.32  .03232 1.0029 122.9 21.3  30d  19
2023 01 29 21  05 09 10.224   -01 37 44.15  .03236 1.0029 122.9 21.3  30d  19
2023 01 29 22  05 09 03.371   -01 32 02.70  .03239 1.0029 122.9 21.3  30d  19
2023 01 29 23  05 08 56.543   -01 26 21.96  .03243 1.0030 122.9 21.3  30d  19
2023 01 30 00  05 08 49.740   -01 20 41.93  .03247 1.0030 122.8 21.3  30d  19
2023 01 30 01  05 08 42.963   -01 15 02.61  .03250 1.0030 122.8 21.3  30d  19
2023 01 30 02  05 08 36.212   -01 09 24.00  .03254 1.0030 122.8 21.3  30d  19
2023 01 30 03  05 08 29.485   -01 03 46.11  .03258 1.0030 122.8 21.3  30d  19
2023 01 30 04  05 08 22.784   -00 58 08.92  .03261 1.0030 122.7 21.3  30d  19
2023 01 30 05  05 08 16.108   -00 52 32.45  .03265 1.0030 122.7 21.3  30d  19
2023 01 30 06  05 08 09.457   -00 46 56.69  .03269 1.0030 122.7 21.3  30d  19
2023 01 30 07  05 08 02.830   -00 41 21.63  .03272 1.0031 122.6 21.3  30d  19
2023 01 30 08  05 07 56.229   -00 35 47.29  .03276 1.0031 122.6 21.3  30d  19